Weather History for Atlantic, IA

Change the Weather History Date:

Tuesday, October 8, 2013

  Actual Average Record
Temperature  
Mean Temperature 62 °F -  
Max Temperature 77 °F 66 °F 82 °F (2003)
Min Temperature 46 °F 41 °F 19 °F (2000)
Degree Days  
Heating Degree Days 4    
Growing Degree Days 12 (Base 50)    
Moisture  
Dew Point 44 °F    
Average Humidity 58    
Maximum Humidity 87    
Minimum Humidity 28    
Precipitation  
Precipitation 0.00 in - - ()
Sea Level Pressure  
Sea Level Pressure 29.99 in    
Wind  
Wind Speed 10 mph (South)    
Max Wind Speed 24 mph    
Max Gust Speed 37 mph    
Visibility 10 miles    
Events      
Averages and records for this station are not official NWS values.
T = Trace of Precipitation, MM = Missing Value Source: NWS Daily Summary

Daily Weather History Graph

Daily Weather History Graph

Search for Another Location

Airport:

Trip Planner

Search our weather history database for the weather conditions in past years. The results will help you decide how hot, cold, wet, or windy it might be!

Date:

Astronomy

Oct. 08, 2013 Rise Set
Actual Time 7:24 AM CDT 6:49 PM CDT
Civil Twilight 6:56 AM CDT 7:17 PM CDT
Nautical Twilight 6:24 AM CDT 7:49 PM CDT
Astronomical Twilight 5:52 AM CDT 8:21 PM CDT
Moon 11:22 AM CDT (10/8) 9:24 PM CDT (10/8)
Length of Visible Light 12h 20m
Length of Day
11h 25m
Waxing Crescent, 16% of the Moon is Illuminated
Oct 8
Waxing Crescent
Oct 11
First Quarter
Oct 18
Full
Oct 26
Last Quarter
Nov 3
New

Hourly Weather History & Observations

Time (CDT) Temp. Windchill Dew Point Humidity Pressure Visibility Wind Dir Wind Speed Gust Speed Precip Events Conditions
12:15 AM 48.2 °F - 41.0 °F 76% 30.02 in 10.0 mi SW 5.8 mph - N/A   Clear
12:35 AM 48.2 °F - 41.0 °F 76% 30.02 in 10.0 mi SSW 4.6 mph - N/A   Partly Cloudy
12:55 AM 48.2 °F - 41.0 °F 76% 30.02 in 10.0 mi SSW 5.8 mph - N/A   Scattered Clouds
1:15 AM 48.2 °F - 42.8 °F 82% 30.02 in 10.0 mi SSW 5.8 mph - N/A   Scattered Clouds
1:35 AM 48.2 °F - 42.8 °F 82% 30.02 in 10.0 mi SSW 6.9 mph - N/A   Scattered Clouds
1:55 AM 50.0 °F - 42.8 °F 76% 30.02 in 10.0 mi SSW 6.9 mph - N/A   Mostly Cloudy
2:15 AM 48.2 °F - 42.8 °F 82% 30.02 in 10.0 mi SSW 6.9 mph - N/A   Mostly Cloudy
2:35 AM 48.2 °F - 42.8 °F 82% 30.02 in 10.0 mi SSW 5.8 mph - N/A   Scattered Clouds
2:55 AM 46.4 °F 43.5 °F 42.8 °F 87% 30.02 in 10.0 mi SSW 5.8 mph - N/A   Partly Cloudy
3:15 AM 48.2 °F - 42.8 °F 82% 30.02 in 10.0 mi SSW 5.8 mph - N/A   Partly Cloudy
3:35 AM 46.4 °F 43.5 °F 42.8 °F 87% 30.02 in 10.0 mi SSW 5.8 mph - N/A   Partly Cloudy
3:55 AM 46.4 °F 43.5 °F 42.8 °F 87% 30.02 in 10.0 mi SSW 5.8 mph - N/A   Mostly Cloudy
4:15 AM 46.4 °F 44.3 °F 42.8 °F 87% 30.02 in 10.0 mi SW 4.6 mph - N/A   Scattered Clouds
4:35 AM 46.4 °F 44.3 °F 42.8 °F 87% 30.02 in 10.0 mi South 4.6 mph - N/A   Partly Cloudy
4:55 AM 48.2 °F - 42.8 °F 82% 30.02 in 10.0 mi SSW 4.6 mph - N/A   Partly Cloudy
5:15 AM 46.4 °F 43.5 °F 42.8 °F 87% 30.02 in 10.0 mi SSW 5.8 mph - N/A   Mostly Cloudy
5:35 AM 48.2 °F - 42.8 °F 82% 30.02 in 10.0 mi South 5.8 mph - N/A   Mostly Cloudy
5:55 AM 48.2 °F - 42.8 °F 82% 30.03 in 10.0 mi SSW 5.8 mph - N/A   Clear
6:15 AM 48.2 °F - 42.8 °F 82% 30.03 in 10.0 mi SSW 5.8 mph - N/A   Clear
6:35 AM 48.2 °F - 42.8 °F 82% 30.02 in 7.0 mi South 8.1 mph - N/A   Mostly Cloudy
6:55 AM 48.2 °F - 42.8 °F 82% 30.02 in 10.0 mi South 5.8 mph - N/A   Partly Cloudy
7:15 AM 48.2 °F - 42.8 °F 82% 30.02 in 10.0 mi South 5.8 mph - N/A   Clear
7:35 AM 48.2 °F - 42.8 °F 82% 30.03 in 10.0 mi SSW 6.9 mph - N/A   Clear
7:55 AM 48.2 °F - 42.8 °F 82% 30.03 in 10.0 mi South 9.2 mph - N/A   Clear
8:15 AM 50.0 °F - 42.8 °F 76% 30.04 in 10.0 mi South 8.1 mph - N/A   Clear
8:35 AM 51.8 °F - 44.6 °F 76% 30.04 in 10.0 mi South 9.2 mph - N/A   Clear
8:55 AM 53.6 °F - 44.6 °F 72% 30.03 in 10.0 mi South 12.7 mph - N/A   Clear
9:15 AM 55.4 °F - 44.6 °F 67% 30.03 in 10.0 mi South 11.5 mph - N/A   Clear
9:35 AM 57.2 °F - 44.6 °F 63% 30.03 in 10.0 mi South 11.5 mph - N/A   Clear
9:55 AM 60.8 °F - 44.6 °F 55% 30.03 in 10.0 mi South 12.7 mph 21.9 mph N/A   Clear
10:15 AM 62.6 °F - 44.6 °F 52% 30.03 in 10.0 mi SSW 13.8 mph 21.9 mph N/A   Clear
10:35 AM 64.4 °F - 44.6 °F 49% 30.02 in 10.0 mi South 20.7 mph - N/A   Clear
10:55 AM 66.2 °F - 44.6 °F 46% 30.01 in 10.0 mi South 18.4 mph 26.5 mph N/A   Clear
11:15 AM 66.2 °F - 44.6 °F 46% 30.01 in 10.0 mi South 19.6 mph 28.8 mph N/A   Clear
11:35 AM 68.0 °F - 42.8 °F 40% 30.00 in 10.0 mi South 20.7 mph 28.8 mph N/A   Clear
11:55 AM 69.8 °F - 44.6 °F 40% 29.99 in 10.0 mi South 19.6 mph 26.5 mph N/A   Clear
12:15 PM 71.6 °F - 42.8 °F 35% 29.99 in 10.0 mi SSW 20.7 mph 33.4 mph N/A   Clear
12:35 PM 73.4 °F - 42.8 °F 33% 29.99 in 10.0 mi SSW 18.4 mph 28.8 mph N/A   Clear
12:55 PM 73.4 °F - 42.8 °F 33% 29.98 in 10.0 mi SSW 21.9 mph 27.6 mph N/A   Clear
1:15 PM 73.4 °F - 42.8 °F 33% 29.97 in 10.0 mi South 20.7 mph 28.8 mph N/A   Clear
1:35 PM 75.2 °F - 42.8 °F 31% 29.96 in 7.0 mi South 20.7 mph 31.1 mph N/A   Partly Cloudy
1:55 PM 75.2 °F - 42.8 °F 31% 29.96 in 7.0 mi South 17.3 mph 31.1 mph N/A   Partly Cloudy
2:15 PM 75.2 °F - 41.0 °F 29% 29.95 in 10.0 mi South 19.6 mph 36.8 mph N/A   Clear
2:35 PM 77.0 °F - 41.0 °F 28% 29.94 in 8.0 mi South 24.2 mph 32.2 mph N/A   Clear
2:55 PM 77.0 °F - 41.0 °F 28% 29.94 in 9.0 mi South 20.7 mph 28.8 mph N/A   Clear
3:15 PM 77.0 °F - 41.0 °F 28% 29.94 in 8.0 mi South 20.7 mph 31.1 mph N/A   Partly Cloudy
3:35 PM 77.0 °F - 41.0 °F 28% 29.94 in 9.0 mi South 18.4 mph 31.1 mph N/A   Partly Cloudy
3:55 PM 77.0 °F - 42.8 °F 29% 29.93 in 10.0 mi South 24.2 mph 32.2 mph N/A   Clear
4:15 PM 77.0 °F - 42.8 °F 29% 29.93 in 10.0 mi South 21.9 mph 29.9 mph N/A   Clear
4:35 PM 77.0 °F - 42.8 °F 29% 29.93 in 10.0 mi South 18.4 mph 33.4 mph N/A   Clear
4:55 PM 75.2 °F - 42.8 °F 31% 29.93 in 10.0 mi South 21.9 mph 28.8 mph N/A   Partly Cloudy
5:15 PM 73.4 °F - 44.6 °F 36% 29.93 in 10.0 mi South 11.5 mph 24.2 mph N/A   Clear
5:35 PM 73.4 °F - 44.6 °F 36% 29.93 in 10.0 mi South 16.1 mph 27.6 mph N/A   Clear
5:55 PM 73.4 °F - 44.6 °F 36% 29.94 in 10.0 mi South 13.8 mph 24.2 mph N/A   Clear
6:15 PM 71.6 °F - 46.4 °F 41% 29.94 in 10.0 mi South 11.5 mph 19.6 mph N/A   Clear
6:35 PM 69.8 °F - 46.4 °F 43% 29.94 in 10.0 mi South 10.4 mph 19.6 mph N/A   Clear
6:55 PM 68.0 °F - 46.4 °F 46% 29.95 in 10.0 mi SSE 10.4 mph - N/A   Clear
7:15 PM 68.0 °F - 46.4 °F 46% 29.95 in 10.0 mi SSE 9.2 mph 15.0 mph N/A   Clear
7:35 PM 66.2 °F - 46.4 °F 49% 29.96 in 10.0 mi South 11.5 mph - N/A   Clear
7:55 PM 66.2 °F - 46.4 °F 49% 29.96 in 10.0 mi South 11.5 mph 18.4 mph N/A   Clear
8:15 PM 66.2 °F - 46.4 °F 49% 29.96 in 10.0 mi SSE 13.8 mph - N/A   Clear
8:35 PM 64.4 °F - 46.4 °F 52% 29.96 in 10.0 mi SSE 10.4 mph - N/A   Clear
8:55 PM 64.4 °F - 46.4 °F 52% 29.96 in 10.0 mi South 10.4 mph - N/A   Clear
9:15 PM 62.6 °F - 46.4 °F 55% 29.96 in 10.0 mi SSE 12.7 mph 18.4 mph N/A   Clear
9:35 PM 62.6 °F - 46.4 °F 55% 29.97 in 10.0 mi South 12.7 mph - N/A   Clear
9:55 PM 62.6 °F - 46.4 °F 55% 29.97 in 10.0 mi South 11.5 mph - N/A   Clear
10:15 PM 62.6 °F - 46.4 °F 55% 29.98 in 10.0 mi South 11.5 mph - N/A   Clear
10:35 PM 62.6 °F - 46.4 °F 55% 29.98 in 10.0 mi South 11.5 mph - N/A   Clear
10:55 PM 62.6 °F - 46.4 °F 55% 29.98 in 10.0 mi South 11.5 mph - N/A   Clear
11:15 PM 62.6 °F - 46.4 °F 55% 29.98 in 10.0 mi South 11.5 mph - N/A   Clear
11:35 PM 60.8 °F - 46.4 °F 59% 29.98 in 10.0 mi South 12.7 mph - N/A   Clear
11:55 PM 60.8 °F - 46.4 °F 59% 29.99 in 10.0 mi South 11.5 mph - N/A   Clear